Regional Weather Roundup
Issued by NWS Albany, NY

Home | Current Version | Previous Version | Text Only | Print | Product List | Glossary On
Versions: 1 2 3 4 5 6 7 8 9 10 11 12 13 14 15 16 17 18 19 20 21 22 23 24 25 26 27
000
ASUS41 KALY 222010
RWRALY

NEW YORK STATE HOURLY WEATHER ROUNDUP
NATIONAL WEATHER SERVICE ALBANY NY
400 PM EDT WED OCT 22 2014

NOTE: "FAIR" INDICATES FEW OR NO CLOUDS BELOW 12,000 FEET WITH NO
SIGNIFICANT WEATHER AND/OR NO OBSTRUCTIONS TO VISIBILITY.

NYZ032-033-038>043-046>054-057>066-NYZ062>081-222100-
EAST


CITY           SKY/WX    TMP DP  RH WIND       PRES   REMARKS
ALBANY         CLOUDY    53  45  74 N12G23    30.02F
GLENS FALLS    LGT RAIN  51  46  83 N10       30.06F
POUGHKEEPSIE   CLOUDY    52  48  86 N13       29.92F
MONTGOMERY     RAIN      53  47  79 N17G26    29.91F
WHITE PLAINS   CLOUDY    54  46  74 N18G29    29.84F
ISLIP          CLOUDY    54  50  86 N23G37    29.77F
NEW YORK CITY  CLOUDY    57  47  69 N15G23    29.83F
CENTRAL PARK   CLOUDY    56  48  74 N12G18    29.86F
$$

NYZ005>009-017-018-044>046-055-056-222100-
CENTRAL


CITY           SKY/WX    TMP DP  RH WIND       PRES   REMARKS
FULTON         CLOUDY    53  42  66 N15       30.14R
SYRACUSE       CLOUDY    54  45  71 N12       30.11S
ROME           CLOUDY    53  45  74 N13G18    30.08F
ELMIRA         CLOUDY    48  45  89 N12       30.09F
BINGHAMTON     CLOUDY    48  44  86 N14       30.04S
MONTICELLO     CLOUDY    50  46  87 N9        29.96F
$$

NYZ026>034-041>043-222100-
NORTH


CITY           SKY/WX    TMP DP  RH WIND       PRES   REMARKS
WATERTOWN      CLOUDY    50  39  66 NE18G25   30.18R
FORT DRUM      NOT AVBL
MASSENA        CLOUDY    50  39  66 NE14      30.24S
SARANAC LAKE   CLOUDY    42  40  92 N10       30.15R
PLATTSBURGH    CLOUDY    52  42  69 N16       30.18S
$$

NYZ001>004-010>016-019>021-222100-
WEST


CITY           SKY/WX    TMP DP  RH WIND       PRES   REMARKS
NIAGARA FALLS  CLOUDY    47  39  74 NE8       30.23R
BUFFALO        PTSUNNY   46  39  76 N7        30.22S
DUNKIRK        CLOUDY    48  42  80 N8        30.22R
JAMESTOWN      CLOUDY    43  39  87 N12       30.19S
WELLSVILLE     FOG       41  40  96 N13G20    30.14S VSB 1/4
ROCHESTER      CLOUDY    49  41  74 N10       30.20R
PENN YAN       CLOUDY    47  43  86 N8G18     30.14F
$$

             KEY
       WCI = WIND CHILL INDEX
       VSB = VISIBILITY
       HX  = HEAT INDEX
$$



USA.gov is the U.S. government's official web portal to all federal, state and local government web resources and services.